Location: Jackson Park
(37.2862°N, 79.9123°W)
Time: 20:12:46
(UTC+00:00)

Vanguard 2 Rocket - Pass Details

Date: 12 May 2026
Orbit: 553 x 3286 km, 32.9° (Epoch: 6 June)

Event Time Altitude Azimuth Distance (km) Brightness Sun altitude
Rises 00:16:24 0° 283° (WNW) 7,251 13.9 -0.5°
Reaches altitude 10° 00:22:37 10° 274° (W) 6,098 12.6 -1.6°
Maximum altitude 00:36:17 27° 226° (SW) 4,150 10.5 -4.1°
Drops below altitude 10° 00:46:33 10° 176° (S) 4,471 10.1 -5.9°
Sets 00:50:16 0° 163° (SSE) 5,068 10.3 -6.5°
